Location: Caltech
(34.1382°N, 118.1253°W)
Time: 15:11:36
(UTC-07:00)

Cosmos 1125 Rocket - Visible Passes

Search period start: 16 April 2014 00:00
Search period end: 26 April 2014 00:00
Orbit: 760 x 781 km, 74.0° (Epoch: 16 April)

Date Brightness Start Highest point End Pass type
(mag) Time Alt. Az. Time Alt. Az. Time Alt. Az.
17 Apr 5.9 05:38:41 10° SSE 05:42:53 25° E 05:47:05 10° NE visible
18 Apr 6.4 05:04:14 10° SE 05:06:48 14° E 05:09:22 10° ENE visible
20 Apr 4.6 05:30:45 10° S 05:35:43 47° ESE 05:40:40 10° NNE visible
21 Apr 5.6 04:55:17 10° SSE 04:59:32 26° E 05:03:47 10° NE visible
22 Apr 6.2 04:20:44 10° SE 04:23:26 14° E 04:26:08 10° ENE visible
23 Apr 3.5 05:23:25 10° SSW 05:28:38 87° ESE 05:33:51 10° NNE visible
24 Apr 4.4 04:47:23 10° S 04:52:21 48° ESE 04:57:20 10° NNE visible
25 Apr 5.4 04:11:52 10° SSE 04:16:10 27° E 04:20:28 10° NE visible
